| time (UTC) | temp F | wind direction | speed knots | gust knots | rain 1hr in | rain 24hr in | rain mn in | humidity % | barometer mb |
| 20260506003003 | 46 | 56 | 3.5 | 6.1 | 0.00 | 0.00 | 0.00 | 88 | 1014.4 |
| 20260506001503 | 47 | 34 | 1.7 | 3.5 | 0.00 | 0.00 | 0.00 | 86 | 1014.4 |
| 20260506000003 | 47 | 58 | 1.7 | 4.3 | 0.00 | 0.00 | 0.00 | 84 | 1014.4 |
| 20260505234503 | 47 | 52 | 2.6 | 5.2 | 0.00 | 0.00 | 0.00 | 84 | 1014.4 |
| 20260505233003 | 47 | 52 | 1.7 | 6.1 | 0.00 | 0.00 | 0.00 | 82 | 1014.4 |
| 20260505231503 | 47 | 41 | 1.7 | 6.1 | 0.00 | 0.00 | 0.00 | 82 | 1014.4 |
| 20260505230003 | 47 | 53 | 0.9 | 4.3 | 0.00 | 0.00 | 0.00 | 82 | 1014.4 |
| 20260505224503 | 47 | 57 | 1.7 | 4.3 | 0.00 | 0.00 | 0.00 | 81 | 1014.4 |
| 20260505223003 | 47 | 49 | 0.9 | 2.6 | 0.00 | 0.00 | 0.00 | 81 | 1014.3 |
| 20260505221503 | 48 | 14 | 0.0 | 3.5 | 0.00 | 0.00 | 0.00 | 79 | 1014.4 |
| 20260505220003 | 48 | 3 | 1.7 | 6.1 | 0.00 | 0.00 | 0.00 | 79 | 1014.4 |
| 20260505214503 | 48 | 23 | 2.6 | 5.2 | 0.00 | 0.00 | 0.00 | 78 | 1014.4 |
| 20260505213003 | 48 | 37 | 2.6 | 7.8 | 0.00 | 0.00 | 0.00 | 79 | 1014.5 |
| 20260505211716 | 48 | 37 | 2.6 | 7.8 | 0.00 | 0.00 | 0.00 | 81 | 1014.4 |
| 20260505210003 | 48 | 350 | 1.7 | 3.5 | 0.00 | 0.00 | 0.00 | 81 | 1014.3 |
| 20260505204503 | 48 | 324 | 0.0 | 1.7 | 0.00 | 0.00 | 0.00 | 81 | 1014.2 |
| 20260505203003 | 48 | 0 | 0.0 | 1.7 | 0.00 | 0.00 | 0.00 | 81 | 1014.1 |
| 20260505201503 | 49 | 357 | 0.9 | 1.7 | 0.00 | 0.00 | 0.00 | 78 | 1014.0 |
| 20260505200004 | 49 | 12 | 0.0 | 1.7 | 0.00 | 0.00 | 0.00 | 78 | 1014.0 |
| 20260505194503 | 49 | 6 | 1.7 | 4.3 | 0.00 | 0.00 | 0.00 | 76 | 1013.9 |
| 20260505193003 | 50 | 13 | 2.6 | 7.0 | 0.00 | 0.00 | 0.00 | 75 | 1013.8 |
| 20260505191503 | 50 | 11 | 2.6 | 7.0 | 0.00 | 0.00 | 0.00 | 75 | 1013.8 |
| 20260505190218 | 50 | 1 | 4.3 | 9.6 | 0.00 | 0.00 | 0.00 | 74 | 1013.7 |
| 20260505184503 | 50 | 352 | 5.2 | 7.8 | 0.00 | 0.00 | 0.00 | 75 | 1013.7 |
| 20260505183003 | 50 | 359 | 5.2 | 7.8 | 0.00 | 0.00 | 0.00 | 74 | 1013.6 |
| 20260505181503 | 51 | 8 | 4.3 | 7.8 | 0.00 | 0.00 | 0.00 | 74 | 1013.7 |
| 20260505180003 | 51 | 350 | 3.5 | 7.0 | 0.00 | 0.00 | 0.00 | 74 | 1013.7 |
| 20260505174503 | 51 | 16 | 2.6 | 6.1 | 0.00 | 0.00 | 0.00 | 74 | 1013.7 |
| 20260505173003 | 51 | 27 | 3.5 | 7.0 | 0.00 | 0.00 | 0.00 | 72 | 1013.7 |
| 20260505171503 | 51 | 28 | 1.7 | 10.4 | 0.00 | 0.00 | 0.00 | 74 | 1013.8 |
| 20260505170003 | 51 | 352 | 6.1 | 10.4 | 0.00 | 0.00 | 0.00 | 72 | 1013.8 |
| 20260505164503 | 51 | 350 | 8.7 | 11.3 | 0.00 | 0.00 | 0.00 | 74 | 1013.9 |
| 20260505163003 | 52 | 358 | 7.8 | 12.2 | 0.00 | 0.00 | 0.00 | 72 | 1013.9 |
| 20260505161503 | 52 | 357 | 8.7 | 10.4 | 0.00 | 0.00 | 0.00 | 71 | 1013.9 |
| 20260505153003 | 54 | 9 | 5.2 | 9.6 | 0.00 | 0.00 | 0.00 | 68 | 1013.9 |
| 20260505151503 | 53 | 1 | 8.7 | 11.3 | 0.00 | 0.00 | 0.00 | 68 | 1013.9 |
| 20260505124503 | 52 | 356 | 3.5 | 8.7 | 0.00 | 0.00 | 0.00 | 71 | 1014.3 |
| 20260505123003 | 50 | 1 | 7.0 | 11.3 | 0.00 | 0.00 | 0.00 | 72 | 1014.4 |
| 20260505121503 | 50 | 356 | 9.6 | 13.0 | 0.00 | 0.00 | 0.00 | 74 | 1014.4 |
| 20260505120003 | 52 | 20 | 4.3 | 7.8 | 0.00 | 0.00 | 0.00 | 71 | 1014.4 |
| 20260505114503 | 52 | 34 | 4.3 | 9.6 | 0.00 | 0.00 | 0.00 | 70 | 1014.4 |
| 20260505113217 | 52 | 47 | 6.1 | 9.6 | 0.00 | 0.00 | 0.00 | 68 | 1014.6 |
| 20260505111503 | 52 | 14 | 5.2 | 9.6 | 0.00 | 0.00 | 0.00 | 71 | 1014.6 |
| 20260505101503 | 52 | 351 | 7.0 | 12.2 | 0.00 | 0.00 | 0.00 | 67 | 1014.7 |
| 20260505100218 | 52 | 349 | 7.8 | 9.6 | 0.00 | 0.00 | 0.00 | 64 | 1014.6 |
| 20260505094717 | 52 | 8 | 6.1 | 11.3 | 0.00 | 0.00 | 0.00 | 63 | 1014.7 |
| 20260505093003 | 52 | 37 | 5.2 | 12.2 | 0.00 | 0.00 | 0.00 | 66 | 1014.6 |
| 20260505091503 | 52 | 2 | 11.3 | 16.5 | 0.00 | 0.00 | 0.00 | 66 | 1014.6 |
| 20260505090004 | 52 | 4 | 7.8 | 13.9 | 0.00 | 0.00 | 0.00 | 67 | 1014.7 |
| 20260505084503 | 53 | 21 | 4.3 | 9.6 | 0.00 | 0.00 | 0.00 | 66 | 1014.6 |
| 20260505083003 | 53 | 38 | 5.2 | 10.4 | 0.00 | 0.00 | 0.00 | 66 | 1014.8 |
| 20260505081503 | 52 | 13 | 7.0 | 11.3 | 0.00 | 0.00 | 0.00 | 70 | 1014.9 |
| 20260505080218 | 51 | 6 | 7.0 | 12.2 | 0.00 | 0.00 | 0.00 | 71 | 1014.9 |
| 20260505074503 | 51 | 5 | 7.0 | 13.0 | 0.00 | 0.00 | 0.00 | 72 | 1014.8 |
| 20260505073003 | 51 | 360 | 7.8 | 10.4 | 0.00 | 0.00 | 0.00 | 71 | 1015.0 |
| 20260505071503 | 50 | 354 | 7.0 | 11.3 | 0.00 | 0.00 | 0.00 | 71 | 1015.0 |
| 20260505070003 | 49 | 338 | 4.3 | 7.0 | 0.00 | 0.00 | 0.00 | 72 | 1015.0 |
| 20260505064503 | 48 | 329 | 2.6 | 7.0 | 0.00 | 0.00 | 0.00 | 74 | 1015.0 |
| 20260505063003 | 47 | 5 | 1.7 | 2.6 | 0.00 | 0.00 | 0.00 | 76 | 1014.9 |
| 20260505061503 | 46 | 8 | 1.7 | 2.6 | 0.00 | 0.00 | 0.00 | 79 | 1014.8 |
| 20260505060217 | 45 | 15 | 0.9 | 6.1 | 0.00 | 0.00 | 0.00 | 82 | 1014.8 |
| 20260505054503 | 44 | 0 | 0.0 | 0.0 | 0.00 | 0.00 | 0.00 | 86 | 1014.7 |
| 20260505053219 | 44 | 0 | 0.0 | 0.0 | 0.00 | 0.00 | 0.00 | 85 | 1014.7 |
| 20260505051503 | 44 | 0 | 0.0 | 0.0 | 0.00 | 0.00 | 0.00 | 85 | 1014.8 |
| 20260505041503 | 47 | 10 | 0.9 | 4.3 | 0.00 | 0.00 | 0.00 | 85 | 1014.6 |
| 20260505040216 | 46 | 309 | 2.6 | 4.3 | 0.00 | 0.00 | 0.00 | 88 | 1014.5 |
| 20260505034503 | 46 | 0 | 0.0 | 0.0 | 0.00 | 0.00 | 0.00 | 89 | 1014.5 |
| 20260505033003 | 46 | 0 | 0.0 | 0.0 | 0.00 | 0.00 | 0.00 | 89 | 1014.6 |
| 20260505031503 | 46 | 0 | 0.0 | 0.0 | 0.00 | 0.00 | 0.00 | 89 | 1014.6 |
| 20260505030003 | 46 | 194 | 0.0 | 0.9 | 0.00 | 0.00 | 0.00 | 89 | 1014.7 |
| 20260505024503 | 46 | 0 | 0.0 | 0.9 | 0.00 | 0.00 | 0.00 | 89 | 1014.6 |
| 20260505023003 | 46 | 80 | 0.9 | 1.7 | 0.00 | 0.00 | 0.00 | 91 | 1014.6 |
| 20260505021503 | 46 | 0 | 0.0 | 1.7 | 0.00 | 0.00 | 0.00 | 91 | 1014.8 |
| 20260505020003 | 46 | 126 | 0.9 | 1.7 | 0.00 | 0.00 | 0.00 | 91 | 1014.8 |
| 20260505014503 | 46 | 102 | 0.0 | 1.7 | 0.00 | 0.00 | 0.00 | 92 | 1015.0 |
| 20260505013003 | 46 | 85 | 0.0 | 1.7 | 0.00 | 0.00 | 0.00 | 91 | 1015.1 |
| 20260505011503 | 46 | 78 | 0.0 | 0.9 | 0.00 | 0.00 | 0.00 | 91 | 1015.2 |
| 20260505010003 | 46 | 43 | 0.9 | 3.5 | 0.00 | 0.00 | 0.00 | 92 | 1015.2 |
| 20260505004503 | 46 | 51 | 1.7 | 3.5 | 0.00 | 0.00 | 0.00 | 92 | 1015.4 |